CW2312 Weather Reports


Display with metric or nautical units.
time (UTC)temp
F
wind
direction
speed
MPH
gust
MPH
rain 1hr
in
rain 24hr
in
rain mn
in
humidity
%
barometer
mb
20260507022334 50 0 0.0 0.0 0.00 0.35 0.30 68 1015.0
20260507021433 51 0 0.0 0.0 0.00 0.36 0.30 67 1014.9
20260507020533 51 0 0.0 0.0 0.00 0.38 0.30 66 1014.8
20260507014733 53 0 0.0 0.0 0.00 0.40 0.30 63 1014.5
20260507013833 54 0 0.0 0.0 0.00 0.40 0.30 61 1014.3
20260507012932 54 0 0.0 0.0 0.00 0.41 0.30 61 1014.4
20260507012032 54 0 0.0 0.0 0.00 0.42 0.30 61 1014.2
20260507011134 54 0 0.0 0.0 0.00 0.44 0.30 61 1014.2
20260507010234 55 0 0.0 0.0 0.00 0.46 0.30 60 1014.3
20260507005332 55 0 0.0 0.0 0.00 0.50 0.30 59 1014.3
20260507004432 55 312 0.0 3.0 0.00 0.50 0.30 59 1014.2
20260507003533 55 340 0.0 3.0 0.00 0.51 0.30 58 1013.9
20260507002632 56 0 0.0 0.0 0.00 0.52 0.30 58 1013.7
20260507001732 56 0 0.0 0.0 0.00 0.53 0.30 58 1013.7
20260507000833 56 0 0.0 0.0 0.00 0.55 0.30 58 1013.6
20260506235932 57 0 0.0 0.0 0.00 0.57 0.30 57 1013.6
20260506235032 57 330 0.0 4.0 0.00 0.57 0.30 56 1013.6
20260506234133 57 342 0.0 4.0 0.00 0.58 0.30 56 1013.5
20260506232332 58 286 0.0 4.0 0.00 0.60 0.30 54 1013.4
20260506231432 58 294 1.0 6.0 0.00 0.60 0.30 53 1013.6
20260506230533 59 310 1.0 8.0 0.00 0.61 0.30 53 1013.6
20260506225632 59 316 0.0 5.0 0.00 0.62 0.30 54 1013.6
20260506224732 58 316 1.0 5.0 0.00 0.62 0.30 54 1013.6
20260506223832 58 307 0.0 4.0 0.00 0.64 0.30 55 1013.9
20260506222933 58 338 2.0 9.0 0.00 0.66 0.30 54 1013.9
20260506222032 58 333 1.0 8.0 0.00 0.67 0.30 55 1013.9
20260506221133 58 283 0.0 3.0 0.00 0.69 0.30 55 1013.9
20260506220233 58 289 1.0 7.0 0.00 0.71 0.30 53 1013.9
20260506215332 58 340 1.0 8.0 0.00 0.72 0.30 54 1013.9
20260506214433 58 331 2.0 8.0 0.00 0.73 0.30 52 1014.0
20260506213533 58 335 2.0 8.0 0.00 0.74 0.30 53 1013.7
20260506211732 58 317 1.0 7.0 0.00 0.74 0.30 53 1013.4
20260506210833 58 323 2.0 6.0 0.00 0.74 0.30 53 1013.4
20260506205932 58 330 1.0 9.0 0.00 0.74 0.30 52 1013.4
20260506205032 58 309 1.0 6.0 0.00 0.74 0.30 54 1013.3
20260506204132 58 316 2.0 6.0 0.00 0.74 0.30 54 1013.4
20260506203233 58 315 1.0 7.0 0.00 0.75 0.30 54 1013.4
20260506202332 58 315 1.0 7.0 0.00 0.76 0.30 54 1013.3
20260506201433 59 335 1.0 5.0 0.00 0.77 0.30 53 1013.4
20260506200533 59 5 1.0 5.0 0.00 0.79 0.30 52 1013.3
20260506194732 59 322 2.0 6.0 0.00 0.82 0.30 54 1013.2
20260506192932 59 330 2.0 8.0 0.00 0.82 0.30 58 1013.0
20260506192033 59 317 2.0 9.0 0.00 0.82 0.30 53 1013.1
20260506191132 59 332 2.0 9.0 0.00 0.82 0.30 51 1013.2
20260506190232 59 338 3.0 11.0 0.00 0.82 0.30 50 1013.2
20260506185332 59 326 3.0 9.0 0.00 0.82 0.30 51 1013.1
20260506184433 60 324 2.0 9.0 0.00 0.82 0.30 53 1013.2
20260506183532 61 314 2.0 10.0 0.00 0.82 0.30 52 1013.0
20260506182632 60 322 2.0 9.0 0.00 0.82 0.30 53 1012.7
20260506181732 60 327 2.0 8.0 0.00 0.82 0.30 55 1013.0
20260506180833 59 344 1.0 5.0 0.00 0.82 0.30 52 1013.2
20260506175932 60 325 2.0 9.0 0.00 0.82 0.30 56 1013.3
20260506175032 59 310 2.0 11.0 0.00 0.82 0.30 56 1013.4
20260506174132 59 322 1.0 8.0 0.00 0.82 0.30 54 1013.4
20260506173232 59 322 1.0 7.0 0.00 0.82 0.30 56 1013.3
20260506172331 59 323 2.0 7.0 0.00 0.82 0.30 58 1013.4
20260506171432 59 334 1.0 5.0 0.00 0.82 0.30 54 1013.3
20260506170532 59 352 1.0 8.0 0.00 0.82 0.30 53 1013.4
20260506165632 59 285 2.0 8.0 0.00 0.82 0.30 55 1013.5
20260506164732 59 329 3.0 9.0 0.00 0.82 0.30 59 1013.3
20260506163832 58 357 1.0 9.0 0.00 0.82 0.30 60 1013.3
20260506161132 57 354 0.0 7.0 0.00 0.82 0.30 61 1013.3
20260506160231 57 355 1.0 5.0 0.00 0.82 0.30 58 1013.5
20260506155332 57 7 1.0 5.0 0.00 0.82 0.30 59 1013.4
20260506154432 56 327 1.0 7.0 0.00 0.82 0.30 63 1013.5
20260506153533 56 322 1.0 5.0 0.00 0.82 0.30 63 1013.6
20260506152631 55 13 1.0 6.0 0.00 0.82 0.30 62 1013.4
20260506151731 55 28 1.0 6.0 0.00 0.82 0.30 63 1013.2
20260506150831 55 348 2.0 6.0 0.00 0.82 0.30 66 1012.8
20260506145031 54 13 1.0 9.0 0.00 0.82 0.30 69 1012.6
20260506144131 54 2 2.0 9.0 0.00 0.82 0.30 68 1012.5
20260506141432 52 346 2.0 8.0 0.00 0.82 0.30 75 1012.5
20260506140531 51 338 2.0 6.0 0.00 0.82 0.30 77 1012.5
20260506135631 50 336 1.0 6.0 0.00 0.82 0.30 80 1012.8
20260506134731 50 327 1.0 4.0 0.00 0.82 0.30 82 1012.7
20260506132932 48 332 1.0 4.0 0.00 0.82 0.30 84 1012.4
20260506131131 48 329 1.0 6.0 0.00 0.82 0.30 86 1012.1
20260506130231 48 345 1.0 9.0 0.00 0.82 0.30 87 1012.3
20260506125331 47 336 1.0 6.0 0.00 0.82 0.30 87 1011.9
20260506124432 47 337 0.0 3.0 0.00 0.82 0.30 88 1011.8
20260506123532 47 348 0.0 3.0 0.00 0.82 0.30 88 1011.6
20260506122632 46 0 0.0 0.0 0.00 0.82 0.30 88 1011.8
20260506121732 46 359 0.0 3.0 0.00 0.82 0.30 88 1011.7
20260506120831 46 22 1.0 5.0 0.00 0.82 0.30 89 1011.3
20260506115931 46 358 1.0 8.0 0.00 0.82 0.30 89 1011.1
20260506115031 46 359 1.0 5.0 0.00 0.82 0.30 90 1011.1
20260506114132 45 5 1.0 9.0 0.00 0.82 0.30 90 1010.7
20260506113232 45 21 1.0 9.0 0.00 0.82 0.30 90 1010.3
20260506112331 45 15 0.0 8.0 0.00 0.82 0.30 90 1010.2
20260506111432 45 336 0.0 4.0 0.00 0.82 0.30 91 1010.3
20260506105631 45 358 0.0 4.0 0.00 0.82 0.30 91 1010.4
20260506104732 45 328 0.0 1.0 0.00 0.82 0.30 91 1010.0
20260506103831 45 14 0.0 3.0 0.00 0.83 0.30 91 1009.7
20260506102932 45 356 0.0 4.0 0.00 0.83 0.30 91 1009.3
20260506102031 45 12 2.0 7.0 0.00 0.84 0.30 92 1009.1
20260506101131 45 346 1.0 8.0 0.00 0.86 0.30 92 1009.4
20260506100231 45 336 1.0 6.0 0.00 0.86 0.30 92 1009.7
20260506095331 45 331 1.0 7.0 0.00 0.87 0.30 92 1009.5
20260506093531 45 4 0.0 3.0 0.00 0.90 0.30 92 1009.0
20260506092631 45 27 1.0 7.0 0.00 0.91 0.30 92 1008.8
20260506091731 45 20 1.0 3.0 0.00 0.92 0.30 92 1008.6
20260506090832 45 25 1.0 8.0 0.00 0.92 0.30 92 1008.8
20260506085931 45 10 1.0 9.0 0.00 0.94 0.30 92 1009.0
20260506085032 45 25 1.0 6.0 0.01 0.95 0.30 92 1008.6
20260506084132 45 10 1.0 5.0 0.02 0.95 0.30 92 1008.7
20260506083231 45 16 2.0 9.0 0.03 0.95 0.30 92 1008.6
20260506082330 45 13 2.0 8.0 0.04 0.95 0.30 92 1008.6
20260506081431 45 15 1.0 7.0 0.04 0.95 0.30 92 1008.4
20260506080531 45 7 2.0 10.0 0.04 0.95 0.30 92 1008.6
20260506072930 46 7 2.0 11.0 0.03 0.92 0.27 92 1008.7
20260506072031 46 8 1.0 9.0 0.02 0.91 0.26 92 1008.8
20260506071132 46 4 1.0 5.0 0.03 0.91 0.26 92 1008.7
20260506070230 46 353 2.0 11.0 0.03 0.90 0.25 92 1008.6
20260506061730 47 26 2.0 15.0 0.07 0.89 0.24 92 1008.0
20260506060830 48 21 2.0 13.0 0.08 0.88 0.23 92 1007.9
20260506050530 49 10 3.0 11.0 0.12 0.79 0.14 92 1008.3
20260506044730 49 26 1.0 8.0 0.14 0.77 0.12 92 1008.1
20260506042930 49 349 3.0 10.0 0.12 0.75 0.10 91 1008.2
20260506042030 50 19 3.0 13.0 0.10 0.73 0.08 92 1007.8
20260506041130 50 12 2.0 9.0 0.06 0.69 0.04 92 1008.1
20260506035330 51 29 2.0 10.0 0.01 0.64 0.64 92 1007.8
20260506034430 51 16 1.0 9.0 0.01 0.63 0.63 92 1007.7
20260506032631 51 37 1.0 7.0 0.03 0.63 0.63 91 1007.5
20260506031731 51 28 1.0 5.0 0.04 0.63 0.63 91 1007.5
20260506030831 51 37 1.0 7.0 0.05 0.63 0.63 91 1007.6
20260506025930 51 9 0.0 5.0 0.07 0.63 0.63 91 1008.0
20260506025031 51 30 1.0 5.0 0.08 0.63 0.63 91 1007.8
20260506024132 51 23 2.0 12.0 0.06 0.61 0.61 91 1008.2